When you browse on this site, cookies collect data to enhance your experience and personalize the content and advertising you see.
Visit our Privacy Policy to learn more. By continuing to use the site, you agree to this use of cookies and data.
  • In Hungary
  • List of Countries
  • For 7 days
  • Water Temperature
  • Satellite Maps
  • Weather Map
  • News
  • Weather Widgets
  • user-avatar
    Login

    Hourly Weather Volendam

    Today, 18 June, Tuesday

    Time Temperature Precipitation Wind Pressure Humidity
    00:00 +16°C° 0 mm 1 mps 762 mmHg 80%
    01:00 +16°C° 0 mm 1 mps 762 mmHg 80%
    02:00 +16°C° 0 mm 1 mps 762 mmHg 80%
    03:00 +16°C° 0 mm 1 mps 761 mmHg 80%
    04:00 +18°C° 0 mm 1 mps 761 mmHg 77%
    05:00 +19°C° 0 mm 1 mps 761 mmHg 75%
    06:00 +20°C° 0 mm 1 mps 761 mmHg 73%
    07:00 +22°C° 0 mm 1 mps 761 mmHg 68%
    08:00 +23°C° 0 mm 1 mps 761 mmHg 63%
    09:00 +25°C° 0 mm 1 mps 761 mmHg 58%
    10:00 +25°C° 0 mm 1 mps 761 mmHg 57%
    11:00 +25°C° 0 mm 1 mps 760 mmHg 56%
    12:00 +26°C° 0 mm 2 mps 760 mmHg 55%
    13:00 +25°C° 0.1 mm 2 mps 760 mmHg 59%
    14:00 +24°C° 0.1 mm 3 mps 760 mmHg 62%
    15:00 +24°C° 0.1 mm 3 mps 760 mmHg 65%
    16:00 +22°C° 0 mm 3 mps 759 mmHg 68%
    17:00 +21°C° 0 mm 4 mps 759 mmHg 70%
    18:00 +20°C° 0 mm 4 mps 759 mmHg 73%
    19:00 +19°C° 0 mm 3 mps 759 mmHg 77%
    20:00 +18°C° 0 mm 3 mps 759 mmHg 82%
    21:00 +17°C° 0 mm 3 mps 759 mmHg 86%
    22:00 +17°C° 0 mm 3 mps 758 mmHg 87%
    23:00 +17°C° 0 mm 3 mps 758 mmHg 89%

    Tomorrow, 19 June, Wednesday

    Time Temperature Precipitation Wind Pressure Humidity
    00:00 +17°C° 0 mm 3 mps 757 mmHg 90%
    01:00 +17°C° 0 mm 3 mps 757 mmHg 91%
    02:00 +17°C° 0 mm 3 mps 756 mmHg 92%
    03:00 +17°C° 0 mm 3 mps 756 mmHg 93%
    04:00 +18°C° 0 mm 3 mps 756 mmHg 89%
    05:00 +19°C° 0 mm 3 mps 755 mmHg 86%
    06:00 +20°C° 0 mm 4 mps 755 mmHg 82%
    07:00 +21°C° 0.2 mm 4 mps 755 mmHg 80%
    08:00 +21°C° 0.2 mm 5 mps 754 mmHg 78%
    09:00 +22°C° 0.2 mm 6 mps 754 mmHg 75%
    10:00 +22°C° 0.1 mm 6 mps 754 mmHg 72%
    11:00 +23°C° 0.1 mm 5 mps 754 mmHg 68%
    12:00 +25°C° 0.1 mm 5 mps 754 mmHg 64%
    13:00 +23°C° 0.8 mm 5 mps 754 mmHg 68%
    14:00 +23°C° 0.8 mm 6 mps 754 mmHg 71%
    15:00 +22°C° 0.8 mm 6 mps 754 mmHg 75%
    16:00 +21°C° 0.1 mm 6 mps 754 mmHg 77%
    17:00 +20°C° 0.1 mm 6 mps 754 mmHg 78%
    18:00 +19°C° 0.1 mm 6 mps 755 mmHg 80%
    19:00 +17°C° 0 mm 5 mps 755 mmHg 82%
    20:00 +17°C° 0 mm 4 mps 756 mmHg 84%
    21:00 +17°C° 0 mm 4 mps 756 mmHg 86%
    22:00 +16°C° 0 mm 3 mps 757 mmHg 88%
    23:00 +16°C° 0 mm 3 mps 757 mmHg 90%

    Day after tomorrow, 20 June, Thursday

    Time Temperature Precipitation Wind Pressure Humidity
    00:00 +14°C° 0 mm 3 mps 757 mmHg 91%
    01:00 +15°C° 0 mm 2 mps 757 mmHg 92%
    02:00 +15°C° 0 mm 2 mps 757 mmHg 92%
    03:00 +14°C° 0 mm 1 mps 757 mmHg 92%
    04:00 +15°C° 0 mm 1 mps 757 mmHg 90%
    05:00 +16°C° 0 mm 2 mps 757 mmHg 88%
    06:00 +17°C° 0 mm 2 mps 757 mmHg 85%
    07:00 +17°C° 0.3 mm 2 mps 757 mmHg 85%
    08:00 +17°C° 0.3 mm 3 mps 758 mmHg 85%
    09:00 +17°C° 0.3 mm 3 mps 758 mmHg 85%
    10:00 +17°C° 1.5 mm 4 mps 758 mmHg 84%
    11:00 +17°C° 1.5 mm 4 mps 758 mmHg 83%
    12:00 +18°C° 1.5 mm 4 mps 758 mmHg 82%
    13:00 +18°C° 0.1 mm 4 mps 758 mmHg 76%
    14:00 +19°C° 0.1 mm 5 mps 759 mmHg 69%
    15:00 +19°C° 0.1 mm 5 mps 759 mmHg 63%
    16:00 +19°C° 0 mm 4 mps 759 mmHg 63%
    17:00 +18°C° 0 mm 4 mps 759 mmHg 63%
    18:00 +17°C° 0 mm 3 mps 760 mmHg 63%
    19:00 +16°C° 0 mm 3 mps 760 mmHg 68%
    20:00 +14°C° 0 mm 3 mps 760 mmHg 73%
    21:00 +14°C° 0 mm 2 mps 761 mmHg 78%
    22:00 +14°C° 0 mm 2 mps 761 mmHg 82%
    23:00 +13°C° 0 mm 3 mps 761 mmHg 85%

    21 June, Friday

    Time Temperature Precipitation Wind Pressure Humidity
    00:00 +12°C° 0 mm 3 mps 761 mmHg 89%
    01:00 +12°C° 0 mm 3 mps 761 mmHg 90%
    02:00 +12°C° 0 mm 3 mps 761 mmHg 91%
    03:00 +12°C° 0 mm 3 mps 761 mmHg 92%
    04:00 +13°C° 0 mm 3 mps 761 mmHg 88%
    05:00 +14°C° 0 mm 3 mps 762 mmHg 84%
    06:00 +16°C° 0 mm 3 mps 762 mmHg 80%
    07:00 +17°C° 0 mm 3 mps 762 mmHg 74%
    08:00 +18°C° 0 mm 4 mps 762 mmHg 69%
    09:00 +19°C° 0 mm 4 mps 762 mmHg 63%
    10:00 +19°C° 0 mm 4 mps 762 mmHg 61%
    11:00 +19°C° 0 mm 5 mps 762 mmHg 59%
    12:00 +19°C° 0 mm 5 mps 762 mmHg 57%
    13:00 +19°C° 0 mm 5 mps 763 mmHg 57%
    14:00 +19°C° 0 mm 5 mps 763 mmHg 57%
    15:00 +17°C° 0 mm 5 mps 763 mmHg 56%
    16:00 +17°C° 0 mm 5 mps 763 mmHg 59%
    17:00 +17°C° 0 mm 4 mps 763 mmHg 61%
    18:00 +17°C° 0 mm 4 mps 763 mmHg 64%
    19:00 +14°C° 0 mm 3 mps 764 mmHg 70%
    20:00 +14°C° 0 mm 2 mps 764 mmHg 75%
    21:00 +12°C° 0 mm 1 mps 764 mmHg 81%
    22:00 +12°C° 0 mm 1 mps 765 mmHg 82%
    23:00 +12°C° 0 mm 1 mps 765 mmHg 83%

    22 June, Saturday

    Time Temperature Precipitation Wind Pressure Humidity
    00:00 +12°C° 0 mm 1 mps 765 mmHg 84%
    01:00 +12°C° 0 mm 1 mps 765 mmHg 84%
    02:00 +10°C° 0 mm 2 mps 765 mmHg 84%
    03:00 +10°C° 0 mm 2 mps 765 mmHg 85%
    04:00 +13°C° 0 mm 2 mps 765 mmHg 82%
    05:00 +14°C° 0 mm 2 mps 765 mmHg 79%
    06:00 +15°C° 0 mm 2 mps 765 mmHg 76%
    07:00 +16°C° 0 mm 2 mps 765 mmHg 70%
    08:00 +19°C° 0 mm 1 mps 765 mmHg 64%
    09:00 +20°C° 0 mm 1 mps 766 mmHg 58%
    10:00 +21°C° 0 mm 1 mps 766 mmHg 58%
    11:00 +21°C° 0 mm 1 mps 765 mmHg 57%
    12:00 +21°C° 0 mm 2 mps 765 mmHg 56%
    13:00 +20°C° 0 mm 2 mps 765 mmHg 58%
    14:00 +20°C° 0 mm 2 mps 765 mmHg 60%
    15:00 +19°C° 0 mm 2 mps 765 mmHg 62%
    16:00 +19°C° 0 mm 3 mps 765 mmHg 64%
    17:00 +19°C° 0 mm 3 mps 765 mmHg 67%
    18:00 +18°C° 0 mm 4 mps 765 mmHg 69%
    19:00 +17°C° 0 mm 4 mps 765 mmHg 75%
    20:00 +16°C° 0 mm 3 mps 765 mmHg 81%
    21:00 +13°C° 0 mm 3 mps 766 mmHg 87%
    22:00 +13°C° 0 mm 3 mps 766 mmHg 88%
    23:00 +13°C° 0 mm 3 mps 765 mmHg 90%

    23 June, Sunday

    Time Temperature Precipitation Wind Pressure Humidity
    00:00 +13°C° 0 mm 3 mps 765 mmHg 91%
    01:00 +12°C° 0 mm 3 mps 765 mmHg 90%
    02:00 +12°C° 0 mm 3 mps 765 mmHg 89%
    03:00 +12°C° 0 mm 3 mps 765 mmHg 89%
    04:00 +13°C° 0 mm 3 mps 765 mmHg 86%
    05:00 +13°C° 0 mm 3 mps 765 mmHg 82%
    06:00 +14°C° 0 mm 3 mps 765 mmHg 79%
    07:00 +17°C° 0 mm 4 mps 765 mmHg 74%
    08:00 +18°C° 0 mm 4 mps 765 mmHg 69%
    09:00 +20°C° 0 mm 4 mps 765 mmHg 65%
    10:00 +21°C° 0 mm 4 mps 765 mmHg 63%
    11:00 +22°C° 0 mm 4 mps 765 mmHg 62%
    12:00 +23°C° 0 mm 4 mps 765 mmHg 61%
    13:00 +23°C° 0.1 mm 4 mps 764 mmHg 63%
    14:00 +23°C° 0.1 mm 4 mps 764 mmHg 64%
    15:00 +23°C° 0.1 mm 5 mps 764 mmHg 66%
    16:00 +22°C° 0.1 mm 5 mps 764 mmHg 70%
    17:00 +21°C° 0.1 mm 5 mps 764 mmHg 74%
    18:00 +21°C° 0.1 mm 5 mps 763 mmHg 78%
    19:00 +20°C° 0 mm 5 mps 763 mmHg 80%
    20:00 +19°C° 0 mm 5 mps 763 mmHg 82%
    21:00 +17°C° 0 mm 5 mps 763 mmHg 84%
    22:00 +18°C° 0 mm 4 mps 763 mmHg 85%
    23:00 +18°C° 0 mm 4 mps 763 mmHg 86%
    Show more